XNO24C EHAM-EGGD

Flight info

Callsign XNO24C
Flight time N/A
Altitude 32000
Route IDRID L980 LAM L179 ICTAM
Aircraft A320/M-SDE3FGHIRWY/LB1

Departure

Time N/A
Airport Amsterdam Airport Schiphol (EHAM)

Arrival

Time 2026-05-03 20:17
Airport Bristol Airport (EGGD)
Time Latitude Longitude Altitude Speed Heading
2026-05-03 20:15 51.38835 -2.56945 2346 ft 145 kts 267°
2026-05-03 20:15 51.38775 -2.58553 2150 ft 144 kts 267°
2026-05-03 20:15 51.38715 -2.60152 1943 ft 144 kts 267°
2026-05-03 20:15 51.38655 -2.61747 1763 ft 143 kts 267°
2026-05-03 20:16 51.38595 -2.63337 1559 ft 143 kts 267°
2026-05-03 20:16 51.38535 -2.64918 1366 ft 141 kts 266°
2026-05-03 20:16 51.38475 -2.66477 1169 ft 139 kts 266°
2026-05-03 20:16 51.38409 -2.68009 963 ft 138 kts 265°
2026-05-03 20:17 51.38347 -2.69525 785 ft 136 kts 268°
2026-05-03 20:17 51.38316 -2.71034 610 ft 131 kts 259°
2026-05-03 20:17 51.38257 -2.72143 621 ft 59 kts 267°
2026-05-03 20:17 51.38246 -2.72454 629 ft 21 kts 267°
2026-05-03 20:18 51.38236 -2.72764 630 ft 30 kts 266°
2026-05-03 20:18 51.38220 -2.73108 629 ft 32 kts 266°
2026-05-03 20:18 51.38226 -2.73299 631 ft 14 kts 302°
2026-05-03 20:18 51.38333 -2.73334 618 ft 20 kts 15°
2026-05-03 20:19 51.38389 -2.73128 607 ft 24 kts 87°
2026-05-03 20:19 51.38401 -2.72838 606 ft 26 kts 87°
2026-05-03 20:19 51.38411 -2.72545 622 ft 26 kts 86°
2026-05-03 20:19 51.38424 -2.72244 608 ft 29 kts 86°
2026-05-03 20:20 51.38430 -2.72008 606 ft 18 kts 90°
2026-05-03 20:20 51.38432 -2.71809 606 ft 18 kts 86°
2026-05-03 20:20 51.38440 -2.71612 621 ft 19 kts 87°
2026-05-03 20:20 51.38449 -2.71379 613 ft 21 kts 86°
2026-05-03 20:21 51.38455 -2.71189 622 ft 13 kts 86°
2026-05-03 20:21 51.38458 -2.71106 615 ft 1 kts 86°
2026-05-03 20:21 51.38459 -2.71091 615 ft 1 kts 80°
2026-05-03 20:21 51.38469 -2.71079 625 ft 3 kts 33°
2026-05-03 20:22 51.38495 -2.71073 612 ft 4 kts 353°
2026-05-03 20:22 51.38519 -2.71077 612 ft 0 kts 355°